Tracking 21676 objects as of 29-Oct-2020
HD Live streaming from Space Station
objects crossing your sky now

COSMOS 1577

Track COSMOS 1577 now!
10-day predictions
COSMOS 1577 is classified as:


NORAD ID: 15077
Int'l Code: 1984-067A
Perigee: 961.2 km
Apogee: 1,013.3 km
Inclination: 83.0 °
Period: 104.7 minutes
Semi major axis: 7358 km
RCS: 2.4814 m2 (large)
Launch date: June 27, 1984
Source: Commonwealth of Independent States (former USSR) (CIS)
Launch site: PLESETSK MISSILE AND SPACE COMPLEX (PKMTR)
aabbcc
Your satellite tracking list
Your tracking list is empty




NASA's NSSDC Master Catalog

Two Line Element Set (TLE):
1 15077U 84067A   20302.71089215  .00000024  00000-0  98110-5 0  9995
2 15077  82.9533 288.7289 0035400 345.5345 187.9820 13.75437197570865
Source of the keplerian elements: AFSPC